Simultaneous Nadir Overpasses (SNOs) Predictions

Prediction of SNOs between AQUA and NPP Satellite Orbit:

Table of predicted SNOs for the next 14.0 days since TLE Epoch: 6/2/2017
Index Date (AQUA) Time (AQUA) Lat,Lon (AQUA) SZA (AQUA ) Date (NPP) Time (NPP) Lat,Lon (NPP) SZA (NPP ) Distance(km) Time Diff (sec)
1 06/04/2017 06:21:48 75.42, -38.14 75.84 06/04/2017 06:21:35 75.42, -38.16 75.86 0.63 13
2 06/04/2017 07:10:53 -76.50, 132.82 105.43 06/04/2017 07:11:57 -76.50, 132.82 105.48 0.04 64
3 06/06/2017 21:49:02 -74.78, -91.59 103.69 06/06/2017 21:47:58 -74.79, -91.52 103.65 2.22 64
4 06/06/2017 22:38:04 75.97, 79.35 74.96 06/06/2017 22:38:17 75.98, 79.42 74.92 2.18 13
5 06/09/2017 14:05:26 -74.99, 24.82 104.12 06/09/2017 14:04:49 -74.99, 24.80 104.09 0.72 37
6 06/09/2017 14:54:28 76.16,-164.17 74.52 06/09/2017 14:55:08 76.16,-164.18 74.49 0.22 40
7 06/12/2017 06:21:40 -75.68, 142.62 105.08 06/12/2017 06:21:29 -75.69, 142.72 105.09 2.82 11
8 06/12/2017 07:10:51 76.39, -47.53 74.09 06/12/2017 07:11:58 76.39, -47.60 74.05 1.96 67
9 06/14/2017 21:48:57 74.84, 88.56 75.79 06/14/2017 21:47:56 74.85, 88.64 75.82 2.42 61




NCC Satellite Simultaneous Nadir Overpasses (SNOs) Prediction Service
